Regional Weather Roundup
Issued by NWS Wakefield, VA

Home | Current Version | Previous Version | Text Only | Print | Product List | Glossary Off
Versions: 1 2 3 4 5 6 7 8 9 10 11 12 13 14 15 16 17 18 19 20 21 22 23 24 25 26 27 28 29 30 31 32 33 34 35 36 37 38 39 40 41 42 43 44 45 46 47 48 49 50

000
ASUS41 KAKQ 050114
RWRAKQ

REGIONAL WEATHER ROUNDUP
NATIONAL WEATHER SERVICE WAKEFIELD VA
900 PM EDT FRI SEP 04 2015

Note: "fair" indicates few or no clouds below 12,000 feet with no
significant weather and/or obstructions to visibility. * = Denotes
station may not report precipitation (e.g., rain,snow,etc.),
thunder or fog.

VAZ042-051-052>054-056-050200-
NORTHERN VIRGINIA

CITY           SKY/WX    TMP DP  RH WIND       PRES   REMARKS
WASH NATIONAL  MOCLDY    82  69  64 E12       30.09R
DULLES         MOCLDY    72  70  94 CALM      30.09R
FORT BELVOIR   MOCLDY    78  69  75 VRB5      30.08R
QUANTICO       MOCLDY    75  71  87 NW3       30.08R
FREDERICKSBRG* CLOUDY    77  71  81 NE3       30.06R
STAFFORD*      CLOUDY    73  70  88 CALM      30.11S
WARRENTON        N/A     71  71 100 CALM      30.08R FOG
CULPEPER*      CLOUDY    70  69  98 CALM      30.09R FOG
MANASSAS*      PTCLDY    73  72  94 CALM      30.08R
LEESBURG*      MOCLDY    79  72  78 SE5       30.11R
WINCHESTER     PTCLDY    73  68  83 CALM      30.10R
FRONT ROYAL*   FAIR      75  68  78 CALM      30.09R
LURAY*         FAIR      70  70 100 CALM      30.10R FOG
$$

VAZ048-049-060>072-079>083-050200-
CENTRAL AND SOUTH CENTRAL VIRGINIA

CITY           SKY/WX    TMP DP  RH WIND       PRES   REMARKS
RICHMOND       CLOUDY    78  69  73 NE3       30.07R
CHESTERFIELD*  FAIR      77  63  61 CALM      30.08R
PETERSBURG*    LGT RAIN  73  73 100 CALM      30.07R
HANOVER        CLOUDY    73  71  93 CALM      30.09R FOG
TAPPAHANNOCK*  CLOUDY    73  69  87 CALM      30.08R
QUINTON*       FAIR      73  71  91 CALM      30.06R
CHARLOTTSVILLE CLOUDY    71  65  81 CALM      30.09R
GORDONSVILLE*  FAIR      70  70  99 CALM      30.08R FOG
ORANGE*        CLOUDY    72  70  94 N3        30.09S FOG
LOUISA*        CLOUDY    70  70 100 CALM      30.07R FOG
BUMPASS*       FAIR      71  70  96 NW5       30.08R
FARMVILLE*     CLOUDY    72  66  81 N5        30.06R
CREWE*           N/A    N/A N/A N/A CALM      30.06R VSB 1
FORT PICKETT*  FAIR      69  68  98 SW6       30.07R
CHASE CITY*    FAIR      76  70  82 CALM      30.07R
CLARKSVILLE*   FAIR      73  68  83 CALM      30.06R
SOUTH HILL*    CLOUDY    69  68  97 CALM      30.12R
LAWRENCEVILLE* FAIR      70  70 100 CALM      30.07R
EMPORIA*       MOCLDY    70  70 100 NE3       30.07R FOG
$$

VAZ088>098-050200-
SOUTHEAST VIRGINIA

CITY           SKY/WX    TMP DP  RH WIND       PRES   REMARKS
NORFOLK        PTCLDY    79  69  71 E10       30.04R
VIRGINIA BEACH PTCLDY    83  70  64 E9        30.03R
NORFOLK NAVAL  PTCLDY    79  70  74 E8        30.06R
WEST POINT*    PTCLDY    74  69  83 CALM      30.08R
SALUDA*        FAIR      79  71  76 E7        30.07R
NEWPORT NEWS   PTCLDY    77  70  79 E7        30.05R
LANGLEY AFB    PTCLDY    78  71  77 E13       30.04R
FORT EUSTIS    PTCLDY    79  71  78 VRB5      30.04R
WILLIAMSBURG*  PTCLDY    79  72  78 CALM      30.07R
HR EXEC AP*      N/A     77  70  78 NE6       30.07R
FRANKLIN*      MOCLDY    73  71  92 CALM      30.05R
WAKEFIELD      MOCLDY    76  68  76 CALM      30.06R HAZE
$$

VAZ020-022-025-037-045-050200-
WEST CENTRAL AND SOUTHWEST VIRGINIA

CITY           SKY/WX    TMP DP  RH WIND       PRES   REMARKS
STAUNTON*      CLOUDY    72  67  83 CALM      30.13R
WAYNESBORO*    FAIR      69  67  92 CALM      30.13R
HOT SPRINGS VA CLOUDY    69  64  86 E5        30.23R
LYNCHBURG      CLOUDY    72  68  87 N3        30.10R
DANVILLE       MOCLDY    71  68  90 N3        30.07R
SOUTH BOSTON*  FAIR      70  69  94 CALM      30.06R
MARTINSVILLE   CLOUDY    71  61  70 NW5       30.12R
ROANOKE        CLOUDY    68  66  93 CALM      30.13S
BLACKSBURG     DRIZZLE   66  65  94 S5        30.20R
DUBLIN*          N/A     68  64  87 CALM      30.19R
MARION*        CLOUDY    70  62  76 E6        30.22R
HILLSVILLE*    LGT RAIN  63  63  99 W6        30.18R
RICHLANDS*     MOCLDY    74  32  21 E3        30.19R
WISE*          PTCLDY    73  63  68 N5        30.19R
ABINGDON*      CLEAR     79  62  55 NE6       30.14R
$$

MDZ021>025-VAZ099-100-050200-
SOUTHERN MARYLAND AND THE DELMARVA PENINSULA

CITY           SKY/WX    TMP DP  RH WIND       PRES   REMARKS
PATUXENT RIVER MOCLDY    79  68  69 E15       30.08R
BAY BRIDGE APT   N/A     77  68  73 E10G16    30.10R
LEONARDTOWN    NOT AVBL
DOVER          PTCLDY    76  70  82 NE15      30.10R
GEORGETOWN     MOCLDY    75  71  87 NE10      30.11R
EASTON         CLEAR     77  72  83 E12       30.14
CAMBRIDGE      CLEAR     77  68  73 NE3       30.09R
SALISBURY      PTCLDY    75  72  90 NE10      30.09R
OCEAN CITY     CLEAR     78  72  81 NE14      30.08R
WALLOPS ISLAND LGT RAIN  79  73  82 NE17      30.07R
ACCOMACK*      PTCLDY    72  50  46 NE5       30.04R
$$

NCZ012>017-030>032-050200-
NORTH CENTRAL AND EASTERN NORTH CAROLINA

CITY           SKY/WX    TMP DP  RH WIND       PRES   REMARKS
ROANOKE RAPIDS FAIR      72  70  94 N3        30.05R
RALEIGH        MOCLDY    76  69  79 VRB3      30.05R
ELIZABETH CITY PTCLDY    78  71  79 NE9       30.03R
AHOSKIE*       CLOUDY    75  69  84 CALM      30.04R
EDENTON*       PTCLDY    74  69  87 N3        30.02S
CURRITUCK*     PTCLDY    79  68  68 NE8       30.04R
KILL DEVIL HLS PTCLDY    79  71  76 NE9G17    30.01R
MANTEO         MOCLDY    78  72  81 E16       30.01R
CAPE HATTERAS  PTCLDY    79  72  79 NE10G16   29.98R
TARBORO*       FAIR      71  70  95 CALM      30.04R
GOLDSBORO      CLOUDY    75  71  88 CALM      30.01R
WASHINGTON     MOCLDY    75  71  86 NE5       30.02R
GREENVILLE     MOCLDY    73  72  94 CALM      30.04R
NEW BERN       MOCLDY    78  71  79 NE6       30.02R
WILMINGTON     MOCLDY    79  69  71 N15       30.01R
$$

VAZ048-050200-
ELSEWHERE

CITY           SKY/WX    TMP DP  RH WIND       PRES   REMARKS
HARRISBURG PA  CLOUDY    79  69  71 SE10      30.12R
BALTIMORE      MOCLDY    80  70  71 E10       30.10R
ANNAPOLIS      MOCLDY    80  72  76 E13       30.10R
ANDREWS AFB    PTCLDY    78  69  74 E8        30.09R
PHILADELPHIA   PTCLDY    76  66  71 E13       30.15R
HENDERSON NC   PTCLDY    72  68  87 CALM      30.07R
GREENSBORO     CLOUDY    72  67  84 CALM      30.07R
ROCKY MOUNT    MOCLDY    75  70  84 N3        30.03R
$$

VAZ100-050200-
MARINE

STATION/POSITION TIME  TEMP    WIND        PRES    WAVE   SWELL
                       AIR SEA DIR/SP/G            HT/PER HT/PER
                 (UTC) (F)     (DEG/KT/KT) (MB)    (FT/S) (FT/S)
BRANDYWINE LGT   0000   76 77   70/ 17/ 19 1019.1R
CAPE MAY NJ      0000   76 80   60/  8/ 11 1018.4R
LEWES DE         0000   76 78   80/ 15/ 17 1018.5R
15NM E FENWICK I 0050   78 80   40/ 17/ 21 1018.2R   4/ 5
OCEAN-CITY-INLET 0000   78 79   70/  9/ 13 1017.2R
THOMAS POINT MD  0100          100/ 13       N/A
GOOSES REEF MD   0100   80 81  100/ 14/ 16 1019.8R
COVE POINT MD    0000   80     110/ 13/ 17 1018.5R
SOLOMONS ISLAND  0000      83                N/A
BISHOPS HEAD MD  0000   80 83   60/ 11/ 14 1016.8R
PINEY POINT MD   0005          100/  6/  7   N/A
POTOMAC MD       0100   81 81  100/ 14/ 17 1017.2R   2/ 3
CAMBRIDGE MD     0000   79 83   60/ 12/ 15 1017.2R
LEWISETTA VA     0000   81 82  110/ 16/ 18 1017.0R
RAPPAHANNOCK LGT 0000           60/ 12/ 13 1017.5R
STINGRAY PT      0100   80 81   80/ 14/ 16 1018.5R   2/ 3
YORK RVR RNG VA  0000   80     100/ 12/ 15 1016.2R
YORKTOWN VA      0000   80 81   80/ 16/ 18 1016.6R
JAMESTOWN VA     0100   79 83   70/  4/  6   N/A
DOMINION TERM VA 0000   80      80/ 10/ 15 1016.7R
KIPTOPEKE VA     0000      81   80/  9/ 12   N/A
CHES BAY BRIDGE  0000   80 80   40/ 17/ 20 1016.1R
CAPE HENRY VA    0000   79      60/ 16/ 19   N/A
CHESAPEAKE LGHT  0000   79      70/ 19/ 21 1016.8S
WILLOUBY STN VA  0000   80      80/ 16/ 18 1017.4R
CAPE HENRY BUOY  0028      80                N/A     3/ 4
1ST LANDING BUOY 0100      79              1016.9R   2/ 4
CAPE CHARLES BUO 0026      80                N/A     3/ 4   2/11
OFFSHORE WE BUOY 0011      80                N/A     3/ 4   2/ 9
64NM E OF VA BCH 0050   80 80   60/ 16/ 19 1016.1R   3/ 5   2/ 8
DUCK PIER NC     0000   80 81   60/ 20/ 22 1015.1R
44100 DUCK FRF   0024      79                N/A     3/ 4
44056 DUCK FRF   0011      80                N/A     3/ 4
OREGON INLET NC  0000   80 83   40/ 14/ 18 1015.2R
HATTERAS NC      0000   81 84   30/ 11/ 13 1014.5R
DIAMOND SHLS NC  0050   82 84   30/ 16/ 19 1014.8R   2/ 3   2/11
CAPE LOOKOUT NC  0100   81      40/ 16/ 19 1015.2R
$$


USA.gov is the U.S. government's official web portal to all federal, state and local government web resources and services.